Location: Newark
(48.9320°N, 2.2664°E)
Time: 15:57:41
(UTC+00:00)

Tiros 1 - All Passes

Search period start: 19 February 2020 00:00
Search period end: 29 February 2020 00:00
Orbit: 631 x 664 km, 48.4° (Epoch: 18 February)

Date Brightness Start Highest point End Pass type
(mag) Time Alt. Az. Time Alt. Az. Time Alt. Az.
19 Feb - 03:05:58 10° SSW 03:09:58 30° SSE 03:14:00 10° E visible
19 Feb - 04:47:09 10° WSW 04:51:46 72° SSE 04:56:23 10° E visible
19 Feb - 06:29:17 10° W 06:33:56 82° S 06:38:34 10° E daylight
19 Feb - 08:11:32 10° W 08:15:55 43° SSW 08:20:18 10° SE daylight
19 Feb - 09:55:09 10° WSW 09:57:15 13° SW 09:59:21 10° SSW daylight
20 Feb - 01:51:38 10° S 01:54:21 15° SE 01:57:03 10° ESE night (unlit)
20 Feb - 03:31:20 10° SW 03:35:47 48° SSE 03:40:14 10° E visible
20 Feb - 05:13:10 10° W 05:17:48 84° S 05:22:27 10° E visible
20 Feb - 06:55:22 10° W 06:59:57 67° SSW 07:04:33 10° ESE daylight
20 Feb - 08:37:50 10° W 08:41:40 26° SW 08:45:30 10° SSE daylight
21 Feb - 02:16:01 10° SSW 02:19:58 28° SSE 02:23:54 10° E visible
21 Feb - 03:57:06 10° WSW 04:01:43 70° SSE 04:06:20 10° E visible
21 Feb - 05:39:14 10° W 05:43:53 83° S 05:48:31 10° E visible
21 Feb - 07:21:28 10° W 07:25:53 45° SSW 07:30:18 10° SE daylight
21 Feb - 09:04:53 10° WSW 09:07:16 14° SW 09:09:38 10° SSW daylight
22 Feb - 01:01:51 10° S 01:04:21 14° SE 01:06:51 10° ESE night (unlit)
22 Feb - 02:41:19 10° SW 02:45:45 46° SSE 02:50:11 10° E visible
22 Feb - 04:23:07 10° W 04:27:45 84° S 04:32:24 10° E visible
22 Feb - 06:05:19 10° W 06:09:55 69° SSW 06:14:31 10° ESE visible
22 Feb - 07:47:45 10° W 07:51:40 27° SW 07:55:34 10° SSE daylight
23 Feb - 01:26:04 10° SSW 01:29:57 27° SE 01:33:49 10° E night (unlit)
23 Feb - 03:07:04 10° WSW 03:11:41 68° SSE 03:16:17 10° E visible
23 Feb - 04:49:11 10° W 04:53:49 84° S 04:58:28 10° E visible
23 Feb - 06:31:25 10° W 06:35:51 47° SSW 06:40:18 10° SE daylight
23 Feb - 08:14:39 10° WSW 08:17:16 15° SW 08:19:53 10° S daylight
24 Feb - 00:12:06 10° SSE 00:14:21 13° SE 00:16:36 10° ESE night (unlit)
24 Feb - 01:51:18 10° SW 01:55:43 44° SSE 02:00:07 10° E visible
24 Feb - 03:33:03 10° W 03:37:42 83° S 03:42:21 10° E visible
24 Feb - 05:15:15 10° W 05:19:52 71° SSW 05:24:29 10° ESE visible
24 Feb - 06:57:40 10° W 07:01:39 29° SSW 07:05:37 10° SSE daylight
25 Feb - 00:36:08 10° SSW 00:39:56 25° SE 00:43:44 10° E night (unlit)
25 Feb - 02:17:01 10° WSW 02:21:38 66° SSE 02:26:14 10° E visible
25 Feb - 03:59:08 10° W 04:03:47 85° S 04:08:25 10° E visible
25 Feb - 05:41:21 10° W 05:45:49 50° SSW 05:50:17 10° SE visible
25 Feb - 07:24:28 10° W 07:27:17 16° SW 07:30:05 10° S daylight
25 Feb - 23:22:25 10° SSE 23:24:21 12° SE 23:26:18 10° ESE night (unlit)
26 Feb - 01:01:18 10° SW 01:05:41 42° SSE 01:10:04 10° E night (unlit)
26 Feb - 02:43:00 10° W 02:47:39 82° S 02:52:18 10° E visible
26 Feb - 04:25:12 10° W 04:29:50 73° SSW 04:34:26 10° ESE visible
26 Feb - 06:07:34 10° W 06:11:38 31° SSW 06:15:40 10° SSE visible
26 Feb - 23:46:12 10° SSW 23:49:55 24° SE 23:53:38 10° E night (unlit)
27 Feb - 01:26:58 10° WSW 01:31:36 63° SSE 01:36:11 10° E night (unlit)
27 Feb - 03:09:04 10° W 03:13:43 85° S 03:18:22 10° E visible
27 Feb - 04:51:18 10° W 04:55:47 52° SSW 05:00:17 10° SE visible
27 Feb - 06:34:17 10° W 06:37:16 17° SW 06:40:16 10° S daylight
27 Feb - 22:32:47 10° SSE 22:34:22 12° SE 22:35:56 10° ESE night (unlit)
28 Feb - 00:11:18 10° SW 00:15:39 40° SSE 00:20:00 10° E night (unlit)
28 Feb - 01:52:56 10° WSW 01:57:37 81° S 02:02:15 10° E visible
28 Feb - 03:35:08 10° W 03:39:47 75° SSW 03:44:24 10° ESE visible
28 Feb - 05:17:29 10° W 05:21:37 32° SSW 05:25:44 10° SSE visible
28 Feb - 22:56:17 10° SSW 22:59:54 22° SE 23:03:31 10° E night (unlit)
